Погода в Холме

Погода в Холме : погода сейчас, прогноз погоды и архив. Всё, что Вы хотите узнать о погоде в Холме!

Поиск расширенной информации на нашем сайте:

Другие новости

Новости СМИ2

Главная страница сайта

Новости сайта

03.07.2017

Напоминаем, что на нашем специализированном сайте Метеоцентр.Азия вы можете получить высокодетализированные автоматические прогнозы погоды по пунктам России, СНГ и мира в авиационном формате (включающие направление и скорость ветра, видимость, явления погоды, количество и форму облачности, нижнюю и верхнюю границу облачности).


Погода в Холме - сегодня

Время (UTC), дата Ветер
(°,м/с) 
Видим.   Явления Облачность Т
(°С)
Тd
(°С)
f(%) Тe
(°С)
Pmin
(гПа)
dP
(гПа)
Po
(мм)
O2
(г/м3)
Тmin Tmax R s Состояние
почвы
09 11.06.18 230 (ЮЗ) 20000 м    6/3 600 м верхняя 
[Cu hum|Ci fib]
+23.3 +10.1 43 +25  1008.5  -0.7  750  277           
12 11.06.18 220 (ЮЗ) 20000 м    8/4 600 м средняя, верхняя 
[Cu med, cong|Ac trans|Ci fib]
+25.7 +8.5 34 +26  1006.8  -1.7  749  274           
09 13.06.18 330 (СЗ) 20000 м    8/4 600 м средняя 
[Cu med, cong|Ac lent]
+17.6 +6.2 47 +18  1007.1  1.8  749  283           
12 13.06.18 330 (СЗ) 20000 м    6/3 600 м средняя, верхняя 
[Cu med, cong|Ac lent|Ci sp]
+19.9 +6.3 41 +21  1008.1  750  281           
15 13.06.18 030 (СВ) 20000 м    3/0 верхняя 
[Cc]
+19.7 +5.6 40 +21  1008.6  0.5  750  281           
21 13.06.18 тихо ()   н/о    н/о 
+7.2 +6.3 94 +7  1011.4  1.8  752  294           
00 14.06.18 тихо ()   20000 м    8/0 средняя, верхняя 
[Ac trans|Ci sp]
+7.3 +6.6 95 +7  1012.5  1.1  753  294           
09 14.06.18 060 (СВ) 20000 м  {ливн. осадки}  10/3 600 м кучево-дожд., средняя 
[Cb cap|Ac As]
+17.1 +10.7 66 +19  1015.1  0.8  755  284           
15 14.06.18 120 (ЮВ) 20000 м    9/0 средняя, верхняя 
[Ac trans|Ci sp]
+18.5 +9.2 55 +19  1015.1  -0.2  755  283      0.0     
21 14.06.18 100 (В) 20000 м    4/0 средняя 
[Ac trans]
+9.4 +8.6 95 +10  1016.8  1.2  756  293           
00 15.06.18 тихо ()   20000 м    6/0 средняя 
[Ac trans]
+6.4 +5.6 95 +6  1017.6  0.7  757  297           
09 15.06.18 140 (ЮВ) 20000 м    8/0 верхняя 
[Ci fib]
+20.9 +5.7 37 +21  1017.9  757  283           
12 15.06.18 090 (В) 20000 м    6/0 верхняя 
[Ci fib]
+22.5 +5.3 33 +23  1017.5  -0.4  757  281           
15 15.06.18 060 (СВ) 20000 м    3/1 600 м верхняя 
[Cu hum|Ci fib]
+23.1 +4.3 29 +23  1016.9  -0.5  756  280           
21 15.06.18 тихо ()   10 км    4/0 верхняя 
[Ci fib]
+8 +7.1 94 +8  1018.4  757  295           
09 16.06.18 130 (ЮВ) 20000 м    9/0 средняя, верхняя 
[Ac trans|Ci sp]
+19.7 +4.7 37 +20  1020.1  0.3  759  284           
12 16.06.18 110 (В) 20000 м    9/0 средняя, верхняя 
[Ac trans|Ci sp]
+19.9 +4.9 37 +21  1019.7  -0.4  758  284           
21 16.06.18 060 (СВ) 10 км    8/3 600 м кучево-дожд., средняя 
[Cb cap|Ac trans]
+11.8 +10.8 94 +15  1018.6  -0.3  758  291           
09 17.06.18 140 (ЮВ) 20000 м    8/3 600 м кучево-дожд., средняя 
[Cb cap|Ac trans]
+18.4 +12.7 69 +24  1018.5  -0.3  758  284           
12 17.06.18 120 (ЮВ) 20000 м    8/3 600 м кучево-дожд., средняя, верхняя 
[Cb cap|Ac lent|Ci ing]
+21.3 +13 59 +26  1017.8  -0.6  757  280           
15 17.06.18 110 (В) 20000 м    8/0 средняя, верхняя 
[Ac trans|Ci sp]
+23.2 +10.9 46 +25  1016.7  -1  756  279      0.7     
21 17.06.18 тихо ()   20000 м    6/0 средняя 
[Ac trans]
+15 +13.4 90 +21  1016.3  -0.3  756  286           
00 18.06.18 тихо ()   20000 м    8/0 средняя 
[Ac trans]
+13.9 +12.8 93 +19  1015.8  -0.5  755  287           
09 18.06.18 210 (ЮЗ) 20000 м    8/3 600 м кучево-дожд., средняя, верхняя 
[Cb cap|Ac trans|Ci fib]
+21.2 +12.7 58 +26  1015.7  0.1  756  280           
12 18.06.18 250 (З) 20000 м    6/4 600 м верхняя 
[Cu med, cong|Cc]
+24.3 +13.1 50 +30  1015.1  -0.5  755  277           
Время (UTC), дата Ветер
(°,м/с) 
Видим.   Явления Облачность Т
(°С)
Тd
(°С)
f(%) Тe
(°С)
Pmin
(гПа)
dP
(гПа)
Po
(мм)
O2
(г/м3)
Тmin Tmax R s Состояние
почвы

Для получения пояснительной информации подведите курсор к названию столбца.

ПОГОДА в Холме - архив

Всё, что Вы хотите узнать о погоде в Холме - удобно и подробно!

Выберите нужную дату (начиная с 1 января 2015* года) и нажмите кнопку "Найти".
Будут отображены архивные сводки погоды по пункту Холм, начиная с указанной даты.


Отображать данные в формате CSV (для использования в таблицах Excel)


Внимание! Наш архив погоды предназначен исключительно для личного некоммерческого использования в познавательных целях. Если Вам необходимы официальные справки о состоянии погоды (для производственных, юридических, коммерческих и т.п. целей), обращайтесь в органы Росгидромета.

*Примечание: данная дата относится к архиву по метеостанциям СССР (Россия, СНГ, Балтия).
Архив по метеостанциям Зарубежной Европы и Азии (кроме Китая) хранится 10 дней, по другим регионам земного шара (Китай, Африка, Америка, Австралия, Океания) - 1 день.

Холм - район местоположения метеостанции


Название, широта, долгота, высота метеостанции:
Холм 57.2°ш. 31.2°д. 71 м над ур. моря [Российская Федерация]

Дополнительная информация

В oтличие oт бoльшинства пoгoдных сайтoв мы публикуем пoдрoбную метеoинфoрмацию в детальнoм прoфессиoнальнoм фoрмате.

Характеристики температуры и влажнoсти вoздуха измеряются на высoте 2 м в тени вдали oт зданий и деревьев.
Скoрoсть ветра измеряется на высoте 10 м (на урoвне рoста челoвека скoрoсть ветра ниже в 1.5-2 раза). Если метеoстанция нахoдится в гoрoде или в лесу, тo скoрoсть ветра занижена на 2-4 м/с пo сравнению с oткрытым местoм. Скoрoсть ветра над акватoриями крупных рек и oзёр, а также на вершинах хoлмoв на 2-5 м/с выше, чем в oбычных услoвиях.
Атмoсфернoе давление в разных тoчках местнoсти мoжет значительнo oтличаться oт давления на метеoстанции, в зависимoсти oт услoвий рельефа (при пoдъёме на 10 м давление пoнижается примернo на 1 мм рт.ст.).